WGS F8 (USA 272)

Last updated on Thu Jul 03 2025 00:02:47 GMT+0000 (Coordinated Universal Time)

1 41879U 16075A 25183.53810925 -.00000196 00000+0 00000+0 0 9995 2 41879 0.0393 68.6530 0000660 111.6674 84.0575 1.00264854 31319
UTC large
Height (km)
Speed (km/s)
/
Latitude / Longitude
Inclination (degrees)
Orbital Period (minutes)
Azimuth
Elevation
Range (km)
Doppler Factor

Next 0 passes for location: London (51.5072 / 0.1276)

Sorry there are no passes over London.